Location: Newark
(5.8900°S, 42.6378°W)
Time: 13:08:13
(UTC+00:00)

Vanguard 1 Rocket - Pass Details

Date: 25 October 2019
Orbit: 651 x 4225 km, 34.3° (Epoch: 16 November)

Event Time Altitude Azimuth Distance (km) Brightness Sun altitude
Rises 16:49:06 0° 326° (NW) 7,420 12.2 56.2°
Reaches altitude 10° 16:55:16 10° 337° (NNW) 6,828 12.1 54.7°
Maximum altitude 17:15:18 29° 31° (NNE) 5,889 11.5 49.9°
Drops below altitude 10° 17:34:41 10° 84° (E) 6,779 11.5 45.2°
Sets 17:40:30 0° 94° (E) 7,385 11.6 43.7°
